This is the latest recevied weather packets stored in our database for station/object W8RSN-13. If no packets are shown the sender has not sent any weather packets the latest 10 day(s).
| Time | Temp. | Humidity | Pressure | Rain* | Wind** | Luminosity | Snow |
|---|---|---|---|---|---|---|---|
| 1788284661 | 25° C | 48% | 1017.9 hPa | - | - | - | - |
| 1788284360 | 24.44° C | 50% | 1018.1 hPa | - | - | - | - |
| 1788284059 | 24.44° C | 49% | 1018 hPa | - | - | - | - |
| 1788283759 | 24.44° C | 52% | 1017.8 hPa | - | - | - | - |
| 1788283458 | 23.89° C | 54% | 1018.2 hPa | - | - | - | - |
| 1788283157 | 23.89° C | 57% | 1017.8 hPa | - | - | - | - |
| 1788282856 | 23.89° C | 58% | 1017.8 hPa | - | - | - | - |
| 1788282575 | 23.89° C | 55% | 1017.7 hPa | - | - | - | - |
| 1788282274 | 23.33° C | 54% | 1017.8 hPa | - | - | - | - |
| 1788281973 | 22.78° C | 59% | 1017.8 hPa | - | - | - | - |
| 1788281672 | 22.78° C | 59% | 1017.7 hPa | - | - | - | - |
| 1788281372 | 22.78° C | 61% | 1017.7 hPa | - | - | - | - |
| 1788281071 | 22.78° C | 61% | 1017.6 hPa | - | - | - | - |
| 1788280770 | 22.78° C | 62% | 1017.8 hPa | - | - | - | - |
| 1788280469 | 22.22° C | 62% | 1017.7 hPa | - | - | - | - |
| 1788280168 | 22.22° C | 63% | 1017.8 hPa | - | - | - | - |
| 1788279867 | 22.22° C | 63% | 1017.8 hPa | - | - | - | - |
| 1788279566 | 21.67° C | 63% | 1017.6 hPa | - | - | - | - |
| 1788279265 | 21.67° C | 64% | 1017.7 hPa | - | - | - | - |
| 1788278964 | 21.67° C | 62% | 1017.8 hPa | - | - | - | - |
| 1788278664 | 21.67° C | 62% | 1017.7 hPa | - | - | - | - |
| 1788278363 | 21.11° C | 61% | 1017.7 hPa | - | - | - | - |
| 1788278061 | 21.11° C | 62% | 1017.6 hPa | - | - | - | - |
| 1788277761 | 20.56° C | 64% | 1017.8 hPa | - | - | - | - |
| 1788277460 | 20.56° C | 64% | 1017.7 hPa | - | - | - | - |
* Rain since midnight (hover to see other rain measurements)
** Current wind speed in m/s (hover to see current wind gust speed)